Regional Weather Roundup
Issued by NWS Sioux Falls, SD

Home | Current Version | Previous Version | Graphics & Text | Print | Product List | Glossary Off
Versions: 1 2 3 4 5 6 7 8 9 10 11 12 13 14 15 16 17 18 19 20 21 22 23 24 25 26 27 28 29 30 31 32 33 34 35 36 37 38 39 40 41 42 43 44 45 46 47 48 49 50

000
ASUS43 KFSD 010902
RWRFSD

WEATHER ROUNDUP FOR SE SOUTH DAKOTA/SW MINNESOTA/NW IOWA
NATIONAL WEATHER SERVICE SIOUX FALLS SD
400 AM CDT FRI AUG 01 2014

NOTE: "FAIR" INDICATES FEW OR NO CLOUDS BELOW 12,000 FEET WITH NO
SIGNIFICANT WEATHER AND OR OBSTRUCTIONS TO VISIBILITY.


SDZ038>040-050-052>070-011000-
SOUTHEAST SOUTH DAKOTA

CITY           SKY/WX    TMP DP  RH WIND       PRES   REMARKS
CHAMBERLAIN    PTCLDY    59  56  88 CALM      30.06S
HURON          CLEAR     57  54  89 CALM      30.06R
MADISON        FAIR      54  54 100 NW3       30.08S
MITCHELL       CLEAR     59  57  93 CALM      30.07R
SIOUX FALLS    CLEAR     57  56  96 CALM      30.07S
WINNER         FAIR      65  61  87 S6        30.08R
YANKTON        CLEAR     57  55  94 CALM      30.07S
$$

MNZ071-072-080-081-089-090-097-098-011000-
SOUTHWEST MINNESOTA

CITY           SKY/WX    TMP DP  RH WIND       PRES   REMARKS
FAIRMONT       CLEAR     59  54  82 CALM      30.06S
JACKSON        CLEAR     61  57  88 SW3       30.07S
LUVERNE        FOG       54  52  94 S3        30.09R VSB 1/4
MARSHALL       CLEAR     57  54  88 W3        30.05R
MONTEVIDEO     CLEAR     61  55  82 NW6       30.05S
PIPESTONE      CLEAR     59  54  82 CALM      30.08S
REDWOOD FALLS  CLEAR     62  57  83 NW3       30.05R
TRACY          CLEAR     62  56  82 SW6       30.07R
WINDOM         PTCLDY    55  54  94 CALM      30.07R FOG
WORTHINGTON    CLEAR     57  55  94 SW6       30.09R
$$

IAZ001>003-012>014-020>022-031-032-NEZ013-014-SDZ071-011000-
NORTHWEST IOWA

CITY           SKY/WX    TMP DP  RH WIND       PRES   REMARKS
CHEROKEE       CLEAR     56  56 100 CALM      30.08S
DENISON        PTCLDY    59  59 100 CALM      30.06R
ESTHERVILLE    CLEAR     58  56  93 SW5       30.07R
LE MARS        CLEAR     55  54  94 CALM      30.08S
ORANGE CITY    CLEAR     61  57  88 CALM      30.08S
SIOUX CITY     PTCLDY    59  57  93 E3        30.06S
SPENCER        CLEAR     55  53  93 CALM      30.08R
STORM LAKE     CLEAR     57  57 100 W5        30.08F
$$

ABBREVIATIONS USED IN REMARKS
   TC - TEMPERATURE IN CELSIUS
  WCI - WIND CHILL INDEX
   HX - HEAT INDEX
  VSB - VISIBILITY




USA.gov is the U.S. government's official web portal to all federal, state and local government web resources and services.